• en France
  • Liste des pays
  • À 7 jours
  • Température de l'eau
  • Carte satellitaire
  • Carte météo
  • Widgets météo
  • user-avatar
    Se connecter

    Météo par heure à Medellín

    Ce jour, 20 Février, Mardi

    Heure Température Précipitation Vent Pression Humidité
    00:00 +13°C° 0,2 mm 0 m/s 585 mmHg 92%
    01:00 +13°C° 0 mm 0 m/s 585 mmHg 93%
    02:00 +13°C° 0,2 mm 0 m/s 585 mmHg 94%
    03:00 +13°C° 0,2 mm 0 m/s 585 mmHg 94%
    04:00 +13°C° 0,2 mm 0 m/s 585 mmHg 94%
    05:00 +13°C° 0,1 mm 0 m/s 585 mmHg 94%
    06:00 +12°C° 0,1 mm 0 m/s 585 mmHg 94%
    07:00 +13°C° 0 mm 0 m/s 586 mmHg 92%
    08:00 +15°C° 0,1 mm 0 m/s 587 mmHg 83%
    09:00 +17°C° 0,1 mm 0 m/s 588 mmHg 74%
    10:00 +21°C° 0,1 mm 1 m/s 589 mmHg 65%
    11:00 +21°C° 0,1 mm 1 m/s 589 mmHg 63%
    12:00 +22°C° 0,1 mm 1 m/s 589 mmHg 61%
    13:00 +23°C° 0,1 mm 1 m/s 588 mmHg 59%
    14:00 +23°C° 0,4 mm 1 m/s 588 mmHg 60%
    15:00 +22°C° 0,4 mm 1 m/s 587 mmHg 62%
    16:00 +22°C° 0,4 mm 1 m/s 587 mmHg 63%
    17:00 +20°C° 0,8 mm 1 m/s 586 mmHg 71%
    18:00 +18°C° 0,8 mm 1 m/s 586 mmHg 78%
    19:00 +15°C° 0,8 mm 1 m/s 585 mmHg 86%
    20:00 +15°C° 0,6 mm 1 m/s 586 mmHg 87%
    21:00 +15°C° 0,6 mm 1 m/s 586 mmHg 88%
    22:00 +14°C° 0,6 mm 1 m/s 586 mmHg 89%
    23:00 +13°C° 0,3 mm 0 m/s 586 mmHg 90%

    Demain, 21 Février, Mercredi

    Heure Température Précipitation Vent Pression Humidité
    00:00 +13°C° 0,3 mm 0 m/s 586 mmHg 90%
    01:00 +13°C° 0,3 mm 0 m/s 586 mmHg 91%
    02:00 +13°C° 0,3 mm 0 m/s 586 mmHg 91%
    03:00 +12°C° 0,3 mm 0 m/s 586 mmHg 91%
    04:00 +12°C° 0,3 mm 0 m/s 585 mmHg 91%
    05:00 +12°C° 0,1 mm 0 m/s 586 mmHg 91%
    06:00 +12°C° 0,1 mm 0 m/s 586 mmHg 91%
    07:00 +12°C° 0,1 mm 0 m/s 586 mmHg 91%
    08:00 +14°C° 0 mm 0 m/s 587 mmHg 82%
    09:00 +17°C° 0 mm 0 m/s 588 mmHg 74%
    10:00 +19°C° 0 mm 0 m/s 590 mmHg 66%
    11:00 +19°C° 0,2 mm 0 m/s 589 mmHg 65%
    12:00 +19°C° 0,2 mm 0 m/s 589 mmHg 65%
    13:00 +20°C° 0,2 mm 0 m/s 588 mmHg 65%
    14:00 +21°C° 0,5 mm 1 m/s 588 mmHg 66%
    15:00 +21°C° 0,5 mm 1 m/s 587 mmHg 68%
    16:00 +21°C° 0,5 mm 1 m/s 587 mmHg 70%
    17:00 +19°C° 0,7 mm 1 m/s 586 mmHg 76%
    18:00 +18°C° 0,7 mm 1 m/s 586 mmHg 82%
    19:00 +15°C° 0,7 mm 1 m/s 585 mmHg 87%
    20:00 +15°C° 0,9 mm 1 m/s 586 mmHg 88%
    21:00 +15°C° 0,9 mm 1 m/s 586 mmHg 89%
    22:00 +13°C° 0,9 mm 0 m/s 587 mmHg 90%
    23:00 +13°C° 0,6 mm 0 m/s 587 mmHg 91%

    Après-demain, 22 Février, Jeudi

    Heure Température Précipitation Vent Pression Humidité
    00:00 +13°C° 0,6 mm 0 m/s 586 mmHg 92%
    01:00 +13°C° 0,6 mm 0 m/s 586 mmHg 93%
    02:00 +12°C° 0,5 mm 0 m/s 586 mmHg 93%
    03:00 +12°C° 0,5 mm 0 m/s 586 mmHg 94%
    04:00 +12°C° 0,5 mm 0 m/s 586 mmHg 94%
    05:00 +12°C° 0,5 mm 0 m/s 586 mmHg 94%
    06:00 +12°C° 0,5 mm 0 m/s 586 mmHg 94%
    07:00 +12°C° 0,5 mm 0 m/s 587 mmHg 93%
    08:00 +13°C° 0,2 mm 0 m/s 588 mmHg 87%
    09:00 +14°C° 0,2 mm 0 m/s 588 mmHg 82%
    10:00 +18°C° 0,2 mm 1 m/s 589 mmHg 76%
    11:00 +19°C° 0,5 mm 1 m/s 589 mmHg 71%
    12:00 +20°C° 0,5 mm 1 m/s 589 mmHg 66%
    13:00 +22°C° 0,5 mm 1 m/s 589 mmHg 61%
    14:00 +21°C° 0,9 mm 1 m/s 588 mmHg 66%
    15:00 +20°C° 0,9 mm 1 m/s 587 mmHg 71%
    16:00 +19°C° 0,9 mm 1 m/s 586 mmHg 75%
    17:00 +18°C° 0,9 mm 1 m/s 586 mmHg 80%
    18:00 +16°C° 0,9 mm 1 m/s 586 mmHg 84%
    19:00 +14°C° 0,9 mm 1 m/s 586 mmHg 89%
    20:00 +14°C° 0,8 mm 1 m/s 586 mmHg 90%
    21:00 +14°C° 0,8 mm 1 m/s 586 mmHg 91%
    22:00 +13°C° 0,8 mm 1 m/s 587 mmHg 91%
    23:00 +12°C° 0,3 mm 0 m/s 586 mmHg 91%

    23 Février, Vendredi

    Heure Température Précipitation Vent Pression Humidité
    00:00 +12°C° 0,3 mm 0 m/s 586 mmHg 91%
    01:00 +12°C° 0,3 mm 0 m/s 586 mmHg 90%
    02:00 +11°C° 0,1 mm 0 m/s 586 mmHg 91%
    03:00 +11°C° 0,1 mm 0 m/s 585 mmHg 92%
    04:00 +10°C° 0,1 mm 0 m/s 585 mmHg 92%
    05:00 +10°C° 0 mm 0 m/s 585 mmHg 92%
    06:00 +11°C° 0 mm 0 m/s 586 mmHg 91%
    07:00 +11°C° 0 mm 0 m/s 586 mmHg 90%
    08:00 +13°C° 0 mm 0 m/s 587 mmHg 80%
    09:00 +18°C° 0 mm 1 m/s 589 mmHg 70%
    10:00 +20°C° 0 mm 1 m/s 590 mmHg 60%
    11:00 +21°C° 0,3 mm 1 m/s 589 mmHg 60%
    12:00 +21°C° 0,3 mm 1 m/s 589 mmHg 61%
    13:00 +21°C° 0,3 mm 1 m/s 588 mmHg 61%
    14:00 +21°C° 0,7 mm 1 m/s 588 mmHg 64%
    15:00 +20°C° 0,7 mm 1 m/s 587 mmHg 67%
    16:00 +20°C° 0,7 mm 1 m/s 586 mmHg 71%
    17:00 +18°C° 0,4 mm 1 m/s 586 mmHg 76%
    18:00 +15°C° 0,4 mm 1 m/s 585 mmHg 81%
    19:00 +14°C° 0,4 mm 1 m/s 585 mmHg 86%
    20:00 +14°C° 0,5 mm 1 m/s 585 mmHg 88%
    21:00 +13°C° 0,5 mm 1 m/s 586 mmHg 89%
    22:00 +12°C° 0,5 mm 0 m/s 586 mmHg 91%
    23:00 +12°C° 0,4 mm 0 m/s 586 mmHg 91%

    24 Février, Samedi

    Heure Température Précipitation Vent Pression Humidité
    00:00 +11°C° 0,4 mm 0 m/s 585 mmHg 92%
    01:00 +11°C° 0,4 mm 0 m/s 585 mmHg 92%
    02:00 +11°C° 0,2 mm 0 m/s 585 mmHg 92%
    03:00 +11°C° 0,2 mm 0 m/s 585 mmHg 92%
    04:00 +10°C° 0,2 mm 0 m/s 584 mmHg 92%
    05:00 +10°C° 0 mm 0 m/s 585 mmHg 92%
    06:00 +10°C° 0 mm 0 m/s 585 mmHg 91%
    07:00 +11°C° 0 mm 0 m/s 586 mmHg 90%
    08:00 +13°C° 0 mm 0 m/s 587 mmHg 80%
    09:00 +16°C° 0 mm 1 m/s 588 mmHg 69%
    10:00 +20°C° 0 mm 1 m/s 589 mmHg 58%
    11:00 +21°C° 0,1 mm 1 m/s 589 mmHg 52%
    12:00 +23°C° 0,1 mm 1 m/s 589 mmHg 46%
    13:00 +25°C° 0,1 mm 1 m/s 590 mmHg 39%
    14:00 +24°C° 0,3 mm 1 m/s 589 mmHg 45%
    15:00 +22°C° 0,3 mm 1 m/s 587 mmHg 50%
    16:00 +21°C° 0,3 mm 1 m/s 586 mmHg 55%
    17:00 +19°C° 0,4 mm 1 m/s 586 mmHg 65%
    18:00 +16°C° 0,4 mm 1 m/s 585 mmHg 74%
    19:00 +14°C° 0,4 mm 1 m/s 585 mmHg 83%
    20:00 +13°C° 0,5 mm 1 m/s 585 mmHg 86%
    21:00 +13°C° 0,5 mm 1 m/s 585 mmHg 88%
    22:00 +11°C° 0,5 mm 0 m/s 586 mmHg 90%
    23:00 +11°C° 0,3 mm 0 m/s 585 mmHg 91%

    25 Février, Dimanche

    Heure Température Précipitation Vent Pression Humidité
    00:00 +10°C° 0,3 mm 0 m/s 585 mmHg 91%
    01:00 +10°C° 0,3 mm 0 m/s 585 mmHg 92%
    02:00 +10°C° 0 mm 0 m/s 585 mmHg 92%
    03:00 +9°C° 0 mm 0 m/s 585 mmHg 92%
    04:00 +10°C° 0 mm 1 m/s 584 mmHg 92%
    05:00 +9°C° 0 mm 0 m/s 585 mmHg 90%
    06:00 +10°C° 0 mm 0 m/s 585 mmHg 89%
    07:00 +10°C° 0 mm 0 m/s 586 mmHg 87%
    08:00 +14°C° 0 mm 1 m/s 587 mmHg 76%
    09:00 +18°C° 0 mm 1 m/s 589 mmHg 64%
    10:00 +21°C° 0 mm 1 m/s 590 mmHg 53%
    11:00 +22°C° 0 mm 1 m/s 590 mmHg 47%
    12:00 +24°C° 0 mm 1 m/s 590 mmHg 42%
    13:00 +26°C° 0 mm 1 m/s 590 mmHg 36%
    14:00 +25°C° 0,1 mm 1 m/s 589 mmHg 39%
    15:00 +24°C° 0,1 mm 1 m/s 588 mmHg 43%
    16:00 +23°C° 0,1 mm 1 m/s 587 mmHg 46%
    17:00 +20°C° 0,2 mm 1 m/s 587 mmHg 58%
    18:00 +16°C° 0,2 mm 1 m/s 586 mmHg 70%
    19:00 +14°C° 0,2 mm 1 m/s 585 mmHg 82%
    20:00 +13°C° 0,1 mm 1 m/s 586 mmHg 85%
    21:00 +13°C° 0,1 mm 1 m/s 586 mmHg 88%
    22:00 +12°C° 0,1 mm 1 m/s 586 mmHg 91%
    23:00 +12°C° 0 mm 1 m/s 586 mmHg 92%
    Voir plus